Location: Unspecified
(50.1700°N, 6.8600°E)
Time: 21:16:49
(UTC+00:00)

Cosmos 921 Rocket - Pass Details

Date: 24 January 2019
Orbit: 572 x 632 km, 75.8° (Epoch: 21 October)

Event Time Altitude Azimuth Distance (km) Brightness Sun altitude
Exits shadow 04:27:51 49° 119° (ESE) 748 3.7 -26.9°
Drops below altitude 10° 04:31:07 10° 148° (SSE) 1,877 5.9 -26.4°
Sets 04:33:19 0° 152° (SSE) 2,768 6.8 -26.0°
